Flag for Norway Weather past 2 weeks in Langevåg, Norway

Now
63 °F

Sunny.


Feels Like: 63 °F
Forecast: 53 / 57 °F
Wind: 9 mph from Northeast

Location: Alesund / Vigra

Current Time: Sep 3, 2015 at 7:24:02 PM

Latest Report: Sep 3, 2015 at 6:50 PM


Visibility: 10 mi

Pressure: 29.83 "Hg

Humidity: 73%

Dew point: 54 °F

Location of LangevågLocation

Historic Weather in Langevåg — Graph

°F

Langevåg temperature yesterday

Maximum temperature yesterday: 59 °F (at 4:20 PM)
Minimum temperature yesterday: 52 °F (at 5:50 AM)
Average temperature yesterday: 56 °F

Past Weeks' High & Low Weather Summary

 TemperatureHumidityPressure
High77 °F (Aug 20, 12:50 PM)94% (Aug 20, 1:50 AM)30.21 "Hg (Aug 20, 1:50 AM)
Low52 °F (Aug 20, 2:20 AM)26% (Aug 20, 12:50 PM)29.45 "Hg (Aug 26, 1:20 AM)
Average61 °F75%29.89 "Hg
* Reported Aug 19 5:20 PM — Sep 3 5:50 PM, Langevåg, Weather by CustomWeather, © 2015

Note: Actual official high and low records may vary slightly from our data, if they occured in-between our weather recording intervals... More about our weather records

Advertising

Langevåg weather history for previous 24 hours

 ConditionsComfort  
Time TempWeatherWind HumidityBarometerVisibility
5:50 PM
Thu, Sep 3
63 °FSunny.12 mph68%29.83 "Hg10 mi
5:20 PM63 °FSunny.12 mph73%29.83 "Hg10 mi
4:50 PM64 °FSunny.10 mph68%29.83 "Hg10 mi
4:20 PM63 °FSunny.14 mph68%29.83 "Hg10 mi
3:50 PM64 °FSunny.12 mph64%29.83 "Hg10 mi
3:20 PM64 °FSunny.13 mph60%29.83 "Hg10 mi
2:50 PM64 °FSunny.12 mph56%29.83 "Hg10 mi
2:20 PM64 °FSunny.10 mph56%29.83 "Hg10 mi
1:50 PM64 °FSunny.10 mph52%29.83 "Hg10 mi
1:20 PM64 °FSunny.13 mph56%29.83 "Hg10 mi
12:50 PM63 °FSunny.14 mph64%29.83 "Hg10 mi
12:20 PM63 °FSunny.13 mph59%29.83 "Hg10 mi
11:50 AM63 °FSunny.13 mph64%29.83 "Hg10 mi
11:20 AM61 °FSunny.14 mph63%29.83 "Hg10 mi
10:50 AM59 °FSunny.14 mph68%29.83 "Hg10 mi
10:20 AM61 °FSunny.18 mph63%29.80 "Hg10 mi
9:20 AM57 °FSunny.15 mph72%29.80 "Hg10 mi
8:50 AM57 °FSunny.16 mph72%29.80 "Hg10 mi
8:20 AM57 °FSunny.17 mph72%29.80 "Hg10 mi
7:20 AM57 °FClear.14 mph77%29.80 "Hg10 mi
6:50 AM57 °FClear.16 mph72%29.80 "Hg10 mi
6:20 AM57 °FClear.17 mph72%29.80 "Hg10 mi
5:50 AM57 °FClear.20 mph67%29.80 "Hg10 mi
5:20 AM57 °FPassing clouds.17 mph72%29.80 "HgN/A
4:50 AM57 °FPassing clouds.18 mph72%29.80 "HgN/A
4:20 AM57 °FPassing clouds.23 mph72%29.80 "HgN/A
3:50 AM57 °FPassing clouds.20 mph72%29.80 "HgN/A
3:20 AM57 °FOvercast.18 mph72%29.80 "HgN/A
2:50 AM57 °FOvercast.20 mph72%29.80 "HgN/A
2:20 AM57 °FPassing clouds.22 mph72%29.80 "HgN/A
1:50 AM57 °FPassing clouds.20 mph72%29.80 "HgN/A
1:20 AM59 °FCool.22 mph68%29.80 "HgN/A
12:50 AM57 °FPassing clouds.21 mph72%29.80 "HgN/A
12:20 AM59 °FPassing clouds.23 mph72%29.80 "HgN/A
11:50 PM
Wed, Sep 2
57 °FOvercast.23 mph77%29.80 "HgN/A
11:20 PM57 °FClear.23 mph77%29.80 "Hg10 mi
10:50 PM59 °FClear.23 mph72%29.80 "Hg10 mi
10:20 PM59 °FClear.23 mph72%29.80 "Hg10 mi
9:50 PM59 °FClear.21 mph72%29.80 "Hg10 mi
9:20 PM59 °FSunny.22 mph72%29.80 "Hg10 mi
8:50 PM59 °FSunny.22 mph72%29.80 "Hg10 mi
8:20 PM59 °FSunny.21 mph72%29.80 "Hg10 mi
7:50 PM59 °FSunny.20 mph72%29.80 "Hg10 mi
7:20 PM59 °FSunny.17 mph72%29.80 "Hg10 mi
Weather by CustomWeather, © 2015

See weather overviewHow to use our weather pages